This is the latest recevied weather packets stored in our database for station/object KC3VCX. If no packets are shown the sender has not sent any weather packets the latest 10 day(s).
| Time | Temp. | Humidity | Pressure | Rain* | Wind** | Luminosity | Snow |
|---|---|---|---|---|---|---|---|
| 1777465825 | 12.22° C | 95% | 1012.4 hPa | 0 mm | - | 43 W/m² | - |
| 1777465520 | 12.22° C | 95% | 1012.3 hPa | 0 mm | - | 40 W/m² | - |
| 1777465215 | 12.22° C | 95% | 1012.5 hPa | 0 mm | - | 45 W/m² | - |
| 1777464910 | 12.22° C | 95% | 1012.4 hPa | 0 mm | - | 44 W/m² | - |
| 1777464605 | 12.22° C | 95% | 1012.6 hPa | 0 mm | - | 43 W/m² | - |
| 1777464302 | 12.22° C | 95% | 1012.8 hPa | 0 mm | - | 36 W/m² | - |
| 1777463997 | 12.22° C | 95% | 1013 hPa | 0 mm | - | 32 W/m² | - |
| 1777463692 | 12.22° C | 95% | 1012.9 hPa | 0 mm | - | 33 W/m² | - |
| 1777463387 | 12.22° C | 95% | 1013.3 hPa | 0 mm | - | 33 W/m² | - |
| 1777463084 | 12.22° C | 95% | 1013.1 hPa | 0 mm | - | 30 W/m² | - |
| 1777462779 | 12.22° C | 95% | 1013.3 hPa | 0 mm | - | 24 W/m² | - |
| 1777462474 | 12.22° C | 95% | 1013.4 hPa | 0 mm | - | 21 W/m² | - |
| 1777462172 | 12.22° C | 95% | 1013.5 hPa | 0 mm | - | 20 W/m² | - |
| 1777461868 | 12.22° C | 95% | 1013.3 hPa | 0 mm | - | 20 W/m² | - |
| 1777461565 | 12.22° C | 95% | 1013.3 hPa | 0 mm | - | 20 W/m² | - |
| 1777461260 | 12.22° C | 95% | 1013.5 hPa | 0 mm | - | 19 W/m² | - |
| 1777460956 | 12.22° C | 95% | 1013.4 hPa | 0 mm | - | 17 W/m² | - |
| 1777460652 | 12.22° C | 95% | 1013.4 hPa | 0 mm | - | 16 W/m² | - |
| 1777460347 | 12.22° C | 95% | 1013.2 hPa | 0 mm | - | 14 W/m² | - |
| 1777460044 | 12.22° C | 95% | 1013.4 hPa | 0 mm | - | 12 W/m² | - |
| 1777459741 | 12.22° C | 95% | 1013.3 hPa | 0 mm | - | 10 W/m² | - |
| 1777459437 | 12.22° C | 95% | 1013.4 hPa | 0 mm | - | 6 W/m² | - |
| 1777459135 | 12.22° C | 95% | 1013.3 hPa | 0 mm | - | 5 W/m² | - |
| 1777458831 | 12.22° C | 95% | 1012.9 hPa | 0 mm | - | 4 W/m² | - |
| 1777458528 | 12.22° C | 95% | 1013 hPa | 0 mm | - | 2 W/m² | - |
* Rain latest hour (hover to see other rain measurements)
** Current wind speed in m/s (hover to see current wind gust speed)